Newport, VT

8:07 AM EDT on May 25, 2018 (GMT -0400)
Newport State

Weather History for KEFK - May, 2013

Change the Weather History Date:

Saturday, May 25, 2013

  Actual Average Record
Temperature  
Mean Temperature 38 °F -  
Max Temperature 43 °F 69 °F 85 °F (1946)
Min Temperature 34 °F 45 °F 24 °F (1956)
Degree Days  
Heating Degree Days 26    
Moisture  
Dew Point 36 °F    
Average Humidity 88    
Maximum Humidity 92    
Minimum Humidity 86    
Precipitation  
Precipitation 0.00 in - - ()
Sea Level Pressure  
Sea Level Pressure 29.95 in    
Wind  
Wind Speed 18 mph (NNW)    
Max Wind Speed 28 mph    
Max Gust Speed 41 mph    
Visibility 5 miles    
Events Rain , Snow    
Averages and records for this station are not official NWS values.
T = Trace of Precipitation, MM = Missing Value Source: NWS Daily Summary

Daily Weather History Graph

Daily Weather History Graph

Search for Another Location

Airport or City:

Astronomy

May. 25, 2013 Rise Set
Actual Time 5:10 AM EDT 8:21 PM EDT
Civil Twilight 4:34 AM EDT 8:57 PM EDT
Nautical Twilight 3:49 AM EDT 9:43 PM EDT
Astronomical Twilight 2:53 AM EDT 10:39 PM EDT
Moon 9:06 PM EDT 5:35 AM EDT
Length of Visible Light 16h 22m
Length of Day
15h 11m
Full, 100% of the Moon is Illuminated
May 25
Full
May 31
Last Quarter
Jun 8
New
Jun 16
First Quarter
Jun 23
Full

Hourly Weather History & Observations

Time (EDT) Temp. Windchill Dew Point Humidity Pressure Visibility Wind Dir Wind Speed Gust Speed Precip Events Conditions
12:15 AM 43.7 °F 36.6 °F 40.5 °F 88% 30.00 in 10.0 mi North 15.0 mph 19.6 mph N/A Rain Light Rain
12:35 AM 43.7 °F 36.3 °F 40.3 °F 88% 30.00 in 10.0 mi North 16.1 mph - N/A Rain Rain
12:55 AM 43.7 °F 36.3 °F 40.1 °F 87% 29.99 in 10.0 mi North 16.1 mph 21.9 mph N/A Rain Light Rain
1:15 AM 43.7 °F 36.6 °F 40.1 °F 87% 29.99 in 10.0 mi North 15.0 mph 21.9 mph N/A   Drizzle
1:35 AM 43.7 °F 36.9 °F 40.1 °F 87% 30.00 in 10.0 mi North 13.8 mph 21.9 mph N/A Rain Rain
1:55 AM 43.7 °F 36.9 °F 40.1 °F 87% 29.98 in 10.0 mi North 13.8 mph - N/A Rain Rain
2:15 AM 43.7 °F 36.0 °F 40.5 °F 88% 29.97 in 10.0 mi North 17.3 mph 20.7 mph N/A Rain Rain
2:35 AM 43.7 °F 36.3 °F 40.6 °F 89% 29.97 in 10.0 mi NNW 16.1 mph - N/A Rain Light Rain
2:55 AM 43.2 °F 35.6 °F 40.1 °F 89% 29.97 in 7.0 mi North 16.1 mph 19.6 mph N/A Rain Light Rain
3:15 AM 43.2 °F 36.2 °F 40.1 °F 89% 29.97 in 7.0 mi NNW 13.8 mph 18.4 mph N/A Rain Light Rain
3:35 AM 43.2 °F 36.6 °F 40.1 °F 89% 29.96 in 5.0 mi NNW 12.7 mph - N/A Rain Light Rain
3:55 AM 43.2 °F 35.9 °F 40.3 °F 90% 29.95 in 7.0 mi North 15.0 mph 19.6 mph N/A Rain Rain
4:15 AM 43.2 °F 35.9 °F 40.3 °F 90% 29.95 in 5.0 mi North 15.0 mph 25.3 mph N/A Rain Rain
4:35 AM 43.2 °F 36.6 °F 40.1 °F 89% 29.95 in 7.0 mi NNW 12.7 mph 18.4 mph N/A Rain Light Rain
4:55 AM 42.8 °F 35.1 °F 39.7 °F 89% 29.95 in 7.0 mi NNW 16.1 mph 20.7 mph N/A   Drizzle
5:15 AM 42.8 °F 34.8 °F 39.6 °F 88% 29.95 in 7.0 mi NNW 17.3 mph 24.2 mph N/A Rain Light Rain
5:35 AM 42.6 °F 34.9 °F 39.6 °F 89% 29.95 in 5.0 mi NNW 16.1 mph 21.9 mph N/A Rain Light Rain
5:55 AM 42.8 °F 34.8 °F 39.4 °F 88% 29.95 in 5.0 mi NNW 17.3 mph 26.5 mph N/A Rain Light Rain
6:15 AM 42.8 °F 34.8 °F 39.2 °F 87% 29.95 in 5.0 mi NNW 17.3 mph 28.8 mph N/A Rain Rain
6:35 AM 42.3 °F 33.6 °F 39.2 °F 89% 29.95 in 5.0 mi NNW 19.6 mph 26.5 mph N/A Rain Light Rain
6:55 AM 42.3 °F 32.8 °F 38.7 °F 87% 29.96 in 7.0 mi North 23.0 mph 33.4 mph N/A Rain Rain
7:15 AM 41.9 °F 33.4 °F 38.5 °F 88% 29.95 in 4.0 mi North 18.4 mph 28.8 mph N/A Rain Rain
7:35 AM 41.9 °F 33.1 °F 38.7 °F 88% 29.96 in 2.5 mi North 19.6 mph 24.2 mph N/A   Overcast
7:55 AM 41.4 °F 31.9 °F 38.3 °F 89% 29.95 in 2.0 mi North 21.9 mph 28.8 mph N/A Rain Heavy Rain
8:15 AM 41.7 °F 32.9 °F 38.7 °F 89% 29.94 in 7.0 mi North 19.6 mph 27.6 mph N/A Rain Light Rain
8:35 AM 41.9 °F 33.7 °F 38.5 °F 88% 29.95 in 10.0 mi North 17.3 mph 28.8 mph N/A Rain Light Rain
8:55 AM 41.4 °F 32.1 °F 37.9 °F 88% 29.95 in 10.0 mi North 20.7 mph 27.6 mph N/A Rain Light Rain
9:15 AM 40.8 °F 31.7 °F 37.2 °F 87% 29.95 in 5.0 mi North 19.6 mph 27.6 mph N/A Rain Rain
9:35 AM 40.1 °F 29.9 °F 36.3 °F 86% 29.95 in 1.5 mi North 23.0 mph 31.1 mph N/A Rain Light Rain
9:55 AM 39.4 °F 29.0 °F 36.0 °F 88% 29.95 in 5.0 mi North 23.0 mph 27.6 mph N/A Rain Light Rain
10:15 AM 38.7 °F 28.3 °F 35.4 °F 88% 29.95 in 5.0 mi North 21.9 mph 29.9 mph N/A Rain Light Rain
10:35 AM 38.7 °F 29.5 °F 35.6 °F 89% 29.95 in 5.0 mi North 17.3 mph 27.6 mph N/A Rain Rain
10:55 AM 38.5 °F 28.3 °F 35.4 °F 89% 29.95 in 2.5 mi North 20.7 mph 33.4 mph N/A Rain Rain
11:15 AM 38.5 °F 29.6 °F 35.2 °F 88% 29.95 in 3.0 mi North 16.1 mph 27.6 mph N/A Rain Rain
11:35 AM 38.7 °F 28.8 °F 35.6 °F 89% 29.95 in 2.0 mi NNW 19.6 mph 24.2 mph N/A Rain Rain
11:55 AM 39.0 °F 29.9 °F 35.8 °F 88% 29.95 in 2.5 mi North 17.3 mph 31.1 mph N/A Rain Rain
12:15 PM 38.8 °F 28.5 °F 35.6 °F 88% 29.95 in 4.0 mi North 21.9 mph 27.6 mph N/A Rain Rain
12:35 PM 38.5 °F 29.6 °F 35.2 °F 88% 29.95 in 3.0 mi North 16.1 mph 27.6 mph N/A Rain Rain
12:55 PM 37.8 °F 27.4 °F 34.5 °F 88% 29.96 in 1.8 mi North 20.7 mph 33.4 mph N/A Rain Rain
1:15 PM 36.7 °F 25.7 °F 33.8 °F 89% 29.97 in 2.0 mi North 21.9 mph 32.2 mph N/A Rain Rain
1:35 PM 36.1 °F 24.4 °F 33.3 °F 89% 29.97 in 2.5 mi North 24.2 mph 33.4 mph N/A Rain Rain
1:55 PM 36.5 °F 24.2 °F 33.8 °F 90% 29.97 in 1.8 mi North 27.6 mph 41.4 mph N/A   Overcast
2:15 PM 36.1 °F 25.9 °F 33.3 °F 89% 29.97 in 2.0 mi North 18.4 mph 33.4 mph N/A Snow Light Snow
2:35 PM 34.5 °F 22.8 °F 32.0 °F 90% 29.97 in 1.8 mi North 21.9 mph 28.8 mph N/A Rain Light Rain
2:55 PM 34.0 °F 23.4 °F 32.0 °F 92% 29.97 in 2.5 mi NNW 17.3 mph 27.6 mph N/A Snow Snow
3:15 PM 35.2 °F 24.4 °F 32.9 °F 91% 29.97 in 5.0 mi NNW 19.6 mph 26.5 mph N/A Rain Light Rain
3:35 PM 36.1 °F 25.5 °F 33.3 °F 89% 29.96 in 10.0 mi NNW 19.6 mph 28.8 mph N/A   Overcast
3:55 PM 36.9 °F 24.9 °F 33.8 °F 89% 29.95 in 7.0 mi North 26.5 mph 32.2 mph N/A Rain Light Rain
4:15 PM 37.4 °F 26.4 °F 34.0 °F 87% 29.95 in 5.0 mi NNW 23.0 mph 31.1 mph N/A   Drizzle
4:35 PM 36.9 °F 26.2 °F 33.6 °F 88% 29.95 in 5.0 mi NNW 20.7 mph 31.1 mph N/A   Light Drizzle
4:55 PM 37.0 °F 27.7 °F 33.8 °F 88% 29.95 in 7.0 mi NNW 16.1 mph 27.6 mph N/A   Drizzle
5:15 PM 37.4 °F 26.6 °F 34.0 °F 87% 29.94 in 5.0 mi NNW 21.9 mph 31.1 mph N/A Rain Rain
5:35 PM 36.9 °F 26.5 °F 33.6 °F 88% 29.94 in 4.0 mi NNW 19.6 mph 27.6 mph N/A Rain Rain
5:55 PM 36.7 °F 25.7 °F 33.4 °F 88% 29.93 in 2.5 mi NNW 21.9 mph 27.6 mph N/A Rain Light Rain
6:15 PM 36.7 °F 27.2 °F 33.8 °F 89% 29.93 in 3.0 mi NNW 16.1 mph 27.6 mph N/A Rain Rain
6:35 PM 37.2 °F 27.9 °F 34.2 °F 89% 29.93 in 3.0 mi North 16.1 mph 29.9 mph N/A Rain Rain
6:55 PM 36.9 °F 27.5 °F 34.0 °F 89% 29.93 in 3.0 mi NNW 16.1 mph 21.9 mph N/A Rain Rain
7:15 PM 36.9 °F 26.2 °F 33.8 °F 89% 29.94 in 3.0 mi North 20.7 mph 27.6 mph N/A   Overcast
7:35 PM 36.7 °F 26.3 °F 33.4 °F 88% 29.94 in 3.0 mi North 19.6 mph 27.6 mph N/A Rain Light Rain
7:55 PM 36.7 °F 26.6 °F 33.4 °F 88% 29.93 in 4.0 mi North 18.4 mph 31.1 mph N/A Rain Rain
8:15 PM 36.7 °F 25.4 °F 33.8 °F 89% 29.92 in 4.0 mi North 23.0 mph 29.9 mph N/A Rain Rain
8:35 PM 36.5 °F 26.3 °F 33.3 °F 88% 29.91 in 5.0 mi NNW 18.4 mph 24.2 mph N/A Rain Rain
8:55 PM 36.1 °F 25.9 °F 33.1 °F 89% 29.90 in 5.0 mi NNW 18.4 mph 27.6 mph N/A Rain Rain
9:15 PM 37.0 °F 27.4 °F 34.0 °F 89% 29.90 in 7.0 mi North 17.3 mph 32.2 mph N/A Rain Light Rain
9:35 PM 37.2 °F 27.3 °F 34.0 °F 88% 29.90 in 5.0 mi North 18.4 mph 27.6 mph N/A Rain Rain
9:55 PM 37.0 °F 28.1 °F 34.0 °F 89% 29.90 in 5.0 mi North 15.0 mph - N/A Rain Rain
10:15 PM 37.4 °F 28.2 °F 34.2 °F 88% 29.89 in 4.0 mi North 16.1 mph 27.6 mph N/A Rain Rain
10:35 PM 37.0 °F 27.0 °F 33.8 °F 88% 29.89 in 5.0 mi North 18.4 mph 25.3 mph N/A Rain Rain
10:55 PM 37.4 °F 26.9 °F 34.3 °F 89% 29.88 in 5.0 mi North 20.7 mph 24.2 mph N/A Rain Rain
11:15 PM 37.4 °F 27.5 °F 34.3 °F 89% 29.88 in 5.0 mi North 18.4 mph 27.6 mph N/A Rain Light Rain
11:35 PM 37.2 °F 27.6 °F 33.8 °F 87% 29.87 in 5.0 mi NNW 17.3 mph 28.8 mph N/A Rain Rain
11:55 PM 36.7 °F 26.3 °F 33.8 °F 89% 29.86 in 4.0 mi NNW 19.6 mph 25.3 mph N/A Rain Rain